Youngstown, OH

1:13 PM EST on December 15, 2019 (GMT -0500)
Youngstown-Warren Regional

Weather History for KYNG - September, 2019

Change the Weather History Date:

Saturday, September 14, 2019

  Actual Average Record
Temperature  
Mean Temperature 64 °F 63 °F  
Max Temperature 75 °F 73 °F 90 °F (1931)
Min Temperature 54 °F 52 °F 36 °F (1985)
Degree Days  
Heating Degree Days 0 4  
Month to date heating degree days 9 38  
Since 1 July heating degree days 15 76  
Cooling Degree Days 0 2  
Month to date cooling degree days 51 35  
Year to date cooling degree days 715 521  
Growing Degree Days 14 (Base 50)    
Moisture  
Dew Point 60 °F    
Average Humidity 79    
Maximum Humidity 93    
Minimum Humidity 49    
Precipitation  
Precipitation 1.97 in 0.13 in 2.97 in (1979)
Month to date precipitation 4.30 1.77  
Year to date precipitation 38.82 27.99  
Snow  
Snow 0.00 in 0.00 in - ()
Month to date snowfall 0.0 0.0  
Since 1 July snowfall 0.0 0.0  
Since 1 September snowfall 0.0 0.0  
Snow Depth 0.00 in    
Sea Level Pressure  
Sea Level Pressure 30.17 in    
Wind  
Wind Speed 6 mph ()    
Max Wind Speed 15 mph    
Max Gust Speed 20 mph    
Visibility 8.2 miles    
Events Rain , Thunderstorm    
T = Trace of Precipitation, MM = Missing Value Source: Averaged Metar Reports

Daily Weather History Graph

Daily Weather History Graph

Search for Another Location

Airport or City:

Astronomy

Sep. 14, 2019 Rise Set
Actual Time 7:01 AM EDT 7:34 PM EDT
Civil Twilight 6:34 AM EDT 8:01 PM EDT
Nautical Twilight 6:01 AM EDT 8:34 PM EDT
Astronomical Twilight 5:27 AM EDT 9:07 PM EDT
Moon 8:14 PM EDT (9/14) 7:13 AM EDT (9/14)
Length of Visible Light 13h 27m
Length of Day
12h 32m
Full, 100% of the Moon is Illuminated
Sep 14
Full
Sep 21
Last Quarter
Sep 28
New
Oct 5
First Quarter
Oct 13
Full

Hourly Weather History & Observations

Time (EDT) Temp. Dew Point Humidity Pressure Visibility Wind Dir Wind Speed Gust Speed Precip Events Conditions
12:15 AM 68.0 °F 64.9 °F 90% 30.13 in 2.0 mi North 5.8 mph - 0.17 in Rain , Thunderstorm Light Thunderstorms and Rain
12:31 AM 66.9 °F 64.9 °F 93% 30.13 in 1.5 mi ENE 6.9 mph - 0.34 in Rain , Thunderstorm Heavy Thunderstorms and Rain
12:51 AM 66.9 °F 64.9 °F 93% 30.12 in 1.0 mi SE 8.1 mph - 1.49 in Rain , Thunderstorm Heavy Thunderstorms and Rain
1:18 AM 66.9 °F 64.0 °F 90% 30.13 in 1.5 mi ESE 12.7 mph - 0.40 in Rain , Thunderstorm Heavy Thunderstorms and Rain
1:35 AM 66.9 °F 64.0 °F 90% 30.14 in 4.0 mi SE 9.2 mph - 0.44 in Rain , Thunderstorm Light Thunderstorms and Rain
1:51 AM 66.9 °F 64.0 °F 90% 30.12 in 7.0 mi SE 5.8 mph - 0.45 in Rain , Thunderstorm Light Thunderstorms and Rain
2:17 AM 66.9 °F 64.0 °F 90% 30.14 in 8.0 mi SE 9.2 mph - 0.00 in   Overcast
2:51 AM 66.9 °F 64.0 °F 90% 30.12 in 8.0 mi SSE 8.1 mph - 0.00 in Rain Light Rain
3:51 AM 66.9 °F 64.9 °F 93% 30.12 in 4.0 mi South 5.8 mph - 0.02 in Rain Light Rain
4:07 AM 68.0 °F 64.9 °F 90% 30.14 in 9.0 mi SSW 5.8 mph - 0.01 in   Overcast
4:51 AM 68.0 °F 66.0 °F 93% 30.12 in 9.0 mi SW 5.8 mph - 0.01 in   Overcast
5:12 AM 69.1 °F 66.0 °F 90% 30.14 in 9.0 mi WSW 6.9 mph - N/A   Overcast
5:21 AM 69.1 °F 66.0 °F 90% 30.15 in 7.0 mi West 6.9 mph - N/A   Overcast
5:51 AM 68.0 °F 64.9 °F 90% 30.13 in 8.0 mi West 8.1 mph - N/A   Overcast
6:10 AM 68.0 °F 64.0 °F 87% 30.16 in 9.0 mi WNW 5.8 mph - N/A   Overcast
6:51 AM 66.9 °F 63.0 °F 87% 30.15 in 9.0 mi WNW 5.8 mph - N/A   Overcast
7:35 AM 64.9 °F 60.1 °F 84% 30.18 in 10.0 mi WNW 5.8 mph - N/A   Mostly Cloudy
7:51 AM 64.9 °F 61.0 °F 87% 30.17 in 10.0 mi WNW 4.6 mph - N/A   Mostly Cloudy
8:51 AM 66.0 °F 60.1 °F 81% 30.18 in 10.0 mi WNW 6.9 mph - N/A   Scattered Clouds
9:51 AM 68.0 °F 59.0 °F 73% 30.20 in 10.0 mi NW 10.4 mph - N/A   Mostly Cloudy
10:19 AM 68.0 °F 59.0 °F 73% 30.22 in 10.0 mi WNW 10.4 mph - N/A   Mostly Cloudy
10:51 AM 69.1 °F 57.9 °F 68% 30.21 in 10.0 mi WNW 8.1 mph - N/A   Mostly Cloudy
11:51 AM 72.0 °F 57.9 °F 61% 30.21 in 10.0 mi West 9.2 mph - N/A   Mostly Cloudy
12:51 PM 71.1 °F 55.9 °F 59% 30.20 in 10.0 mi WSW 10.4 mph - N/A   Mostly Cloudy
1:51 PM 73.9 °F 54.0 °F 50% 30.19 in 10.0 mi WNW 9.2 mph - N/A   Mostly Cloudy
2:51 PM 73.9 °F 54.0 °F 50% 30.18 in 10.0 mi West 11.5 mph - N/A   Mostly Cloudy
3:51 PM 73.9 °F 55.9 °F 53% 30.18 in 10.0 mi West 9.2 mph - N/A   Mostly Cloudy
4:51 PM 73.0 °F 54.0 °F 51% 30.18 in 10.0 mi West 9.2 mph 19.6 mph N/A   Mostly Cloudy
5:51 PM 73.9 °F 54.0 °F 50% 30.18 in 10.0 mi West 9.2 mph - N/A   Mostly Cloudy
6:51 PM 71.1 °F 54.0 °F 55% 30.19 in 10.0 mi West 8.1 mph - N/A   Scattered Clouds
7:51 PM 64.0 °F 55.9 °F 75% 30.19 in 10.0 mi Calm Calm - N/A   Partly Cloudy
8:51 PM 61.0 °F 55.9 °F 83% 30.20 in 10.0 mi Calm Calm - N/A   Partly Cloudy
9:51 PM 60.1 °F 55.0 °F 83% 30.21 in 10.0 mi SSW 3.5 mph - N/A   Partly Cloudy
10:51 PM 60.1 °F 55.0 °F 83% 30.22 in 10.0 mi Calm Calm - N/A   Partly Cloudy
11:51 PM 55.0 °F 53.1 °F 93% 30.21 in 10.0 mi Calm Calm - N/A   Clear